Zurück zum Katalog

ATLAS 5 CENTAUR DEB

LostHEO
NORAD 46855·DEBRIS·🇺🇸 United States

Gestartet Oct 17, 2018 von Cape Canaveral Space Force Station

Loading…

Nächste Überflüge (nächste 24 Stunden)

TLE

VeraltetSource: Space-Track

Epoche: Aug 28, 2024, 10:30 UTC

1 46855U 18079DL  24241.43802843 -.00000060  00000-0  00000+0 0  9994
2 46855   9.6226 149.0137 3929952 113.0357 292.4992  1.70400093 23791

Verfolge ATLAS 5 CENTAUR DEB in Echtzeit mit AllMySat

Download on the App Store